VE7PMC Weather Reports


time (UTC)temp
F
wind
direction
speed
knots
gust
knots
rain 1hr
in
rain 24hr
in
rain mn
in
humidity
%
barometer
mb
20260506144550 58 9 0.0 0.0 0.00 0.00 0.00 49 1007.0
20260506143038 56 9 0.0 0.0 0.00 0.00 0.00 55 1007.3
20260506141542 53 9 0.0 0.0 0.00 0.00 0.00 62 1007.6
20260506140045 49 9 0.0 0.0 0.00 0.00 0.00 70 1006.7
20260506134548 48 9 0.0 0.0 0.00 0.00 0.00 70 1007.3
20260506133112 48 9 0.0 0.0 0.00 0.00 0.00 70 1007.1
20260506131554 47 9 0.0 0.0 0.00 0.00 0.00 69 1006.9
20260506130038 47 9 0.0 0.0 0.00 0.00 0.00 69 1006.9
20260506124546 47 9 0.0 0.0 0.00 0.00 0.00 68 1006.9
20260506123110 48 9 0.0 0.0 0.00 0.00 0.00 67 1006.6
20260506121552 48 9 0.0 0.0 0.00 0.00 0.00 67 1006.5
20260506120055 48 9 0.0 0.0 0.00 0.00 0.00 66 1006.4
20260506114539 48 9 0.0 0.0 0.00 0.00 0.00 65 1006.3
20260506113043 49 9 0.0 0.0 0.00 0.00 0.00 64 1006.2
20260506111551 49 9 0.0 0.0 0.00 0.00 0.00 64 1006.1
20260506110039 49 9 0.0 0.0 0.00 0.00 0.00 63 1005.9
20260506104602 50 9 0.0 0.0 0.00 0.00 0.00 63 1005.7
20260506103042 50 9 0.0 0.0 0.00 0.00 0.00 62 1005.7
20260506101545 50 9 0.0 0.0 0.00 0.00 0.00 62 1005.5
20260506100110 50 9 0.0 0.0 0.00 0.00 0.00 61 1005.4
20260506094552 51 9 0.0 0.0 0.00 0.00 0.00 60 1005.4
20260506093043 51 9 0.0 0.0 0.00 0.00 0.00 60 1005.4
20260506091547 51 9 0.0 0.0 0.00 0.00 0.00 60 1005.5
20260506090050 52 9 0.0 0.0 0.00 0.00 0.00 59 1005.4
20260506084556 52 9 0.0 0.0 0.00 0.00 0.00 57 1005.5
20260506083039 53 9 0.0 0.0 0.00 0.00 0.00 56 1005.4
20260506081542 53 9 0.0 0.0 0.00 0.00 0.00 55 1005.3
20260506073054 55 9 0.0 0.0 0.00 0.00 0.00 53 1005.1
20260506071617 55 9 0.0 0.0 0.00 0.00 0.00 51 1005.0
20260506061553 58 9 0.0 0.0 0.00 0.00 0.00 46 1004.2
20260506044540 61 9 0.0 0.0 0.00 0.00 0.00 40 1004.0
20260506043046 62 9 0.0 0.0 0.00 0.00 0.00 38 1003.7
20260506041550 63 9 0.0 0.0 0.00 0.00 0.00 35 1003.6
20260506040052 64 9 0.0 0.0 0.00 0.00 0.00 32 1003.3
20260506034556 65 0.0 0.0 0.00 0.00 0.00 32 1003.1
20260506033053 67 9 0.0 0.0 0.00 0.00 0.00 32 1003.1
20260506031555 69 9 0.0 0.0 0.00 0.00 0.00 30 1002.9
20260506030043 71 9 0.0 0.0 0.00 0.00 0.00 27 1003.7
20260506024548 71 9 0.0 0.0 0.00 0.00 0.00 27 1003.4
20260506023055 73 9 0.0 0.0 0.00 0.00 0.00 24 1003.4
20260506021541 74 9 0.0 0.0 0.00 0.00 0.00 23 1003.3
20260506020045 76 9 0.0 0.0 0.00 0.00 0.00 18 1003.3
20260506014549 77 9 0.0 0.0 0.00 0.00 0.00 18 1003.7
20260506013037 77 10 0.0 0.0 0.00 0.00 0.00 18 1003.8
20260506011542 78 7 0.0 0.0 0.00 0.00 0.00 19 1003.7
20260506010048 78 9 0.0 0.0 0.00 0.00 0.00 18 1003.9
20260506004553 78 353 0.0 0.0 0.00 0.00 0.00 19 1004.0
20260506003057 78 343 0.9 0.0 0.00 0.00 0.00 19 1004.1
20260506001540 78 353 0.9 0.0 0.00 0.00 0.00 18 1004.3
20260506000044 79 342 0.9 0.0 0.00 0.00 0.00 18 1004.4
20260505234554 79 333 1.7 0.0 0.00 0.00 0.00 18 1004.6
20260505233056 79 350 0.0 0.0 0.00 0.00 0.00 18 1004.6
20260505231559 78 350 0.9 0.0 0.00 0.00 0.00 18 1004.9
20260505230042 78 333 0.9 0.0 0.00 0.00 0.00 18 1005.1
20260505224605 78 345 0.0 0.0 0.00 0.00 0.00 18 1005.1
20260505223111 78 350 0.9 0.0 0.00 0.00 0.00 18 1005.2
20260505221557 78 357 0.9 0.0 0.00 0.00 0.00 18 1005.4
20260505220045 77 10 0.0 0.0 0.00 0.00 0.00 19 1005.7
20260505214554 77 352 0.9 0.0 0.00 0.00 0.00 18 1005.8
20260505213039 77 338 0.0 0.0 0.00 0.00 0.00 19 1006.0
20260505211543 76 346 1.7 0.0 0.00 0.00 0.00 20 1006.2
20260505210052 76 350 0.9 0.0 0.00 0.00 0.00 19 1006.3
20260505204540 75 340 0.0 0.0 0.00 0.00 0.00 19 1006.6
20260505203043 75 335 0.9 0.0 0.00 0.00 0.00 21 1006.7
20260505201611 74 339 0.9 0.0 0.00 0.00 0.00 20 1006.9
20260505200038 75 359 0.0 0.0 0.00 0.00 0.00 22 1007.2
20260505194541 74 340 0.9 0.0 0.00 0.00 0.00 22 1007.2
20260505193106 74 3 0.9 0.0 0.00 0.00 0.00 20 1007.5
20260505191613 73 342 0.0 0.0 0.00 0.00 0.00 21 1007.7
20260505190054 73 336 3.5 0.0 0.00 0.00 0.00 20 1007.8
20260505184548 73 78 0.9 0.0 0.00 0.00 0.00 22 1007.8
20260505183052 73 352 0.0 0.0 0.00 0.00 0.00 22 1007.8
20260505181535 71 349 0.0 0.0 0.00 0.00 0.00 23 1008.1
20260505180042 71 353 0.0 0.0 0.00 0.00 0.00 23 1008.2
20260505174546 71 353 0.0 0.0 0.00 0.00 0.00 25 1008.0
20260505173049 70 350 0.0 0.0 0.00 0.00 0.00 25 1008.1
20260505171556 69 345 0.0 0.0 0.00 0.00 0.00 26 1008.3
20260505170040 66 338 0.9 0.0 0.00 0.00 0.00 29 1008.5
20260505164604 66 335 0.9 0.0 0.00 0.00 0.00 28 1008.5
20260505163046 66 335 0.0 0.0 0.00 0.00 0.00 30 1008.5
20260505161553 64 335 0.0 0.0 0.00 0.00 0.00 39 1008.6
20260505153057 0 0.0 0.0 0.00 0.00 0.00 1008.9
20260505151600 0 0.0 0.0 0.00 0.00 0.00 1008.9